www.pogodaiklimat.ru
ПОГОДА в Колдуэлле
Время
и дата
13:40 26.10
13:53 26.10
14:16 26.10
14:42 26.10
14:53 26.10
15:10 26.10
15:46 26.10
15:53 26.10
16:53 26.10
17:31 26.10
17:53 26.10
18:44 26.10
18:53 26.10
19:21 26.10
19:53 26.10
20:53 26.10
21:53 26.10
22:53 26.10
23:53 26.10
00:36 27.10
00:53 27.10
01:08 27.10
01:36 27.10
01:53 27.10
02:10 27.10
02:45 27.10
02:53 27.10
03:36 27.10
03:53 27.10
04:13 27.10
04:28 27.10
04:37 27.10
04:46 27.10
04:53 27.10
05:04 27.10
05:17 27.10
05:26 27.10
05:53 27.10
06:46 27.10
06:53 27.10
07:53 27.10
08:00 27.10
08:53 27.10
09:20 27.10
09:53 27.10
10:10 27.10
10:53 27.10
11:53 27.10
Ветер
(напр.,м/с)
Видим. Явления Облачность Т
(С)
Тd
(С)
f
(%)
Тe
(С)
Тes
(С)
Комфортность P
(гПа)
Po
(гПа)
Тmin
(С)
Tmax
(С)
R
(мм)
R24
(мм)
S
(см)
В 1 10 км дымка 10/10 150 м +13.3 +11.1 87 +13 +13 1014.3
СВ 1 8 км дымка 10/10 150 м +13.3 +11.1 87 +12 +12 1020.7 1013.9
В 1 4 км дымка 10/10 150 м +12.8 +11.7 93 +12 +12 1013.6
В 1 4 км дымка 10/10 120 м +12.8 +11.7 93 +12 +12 1013.3
СВ 1 3 км дымка 10/10 120 м +13.3 +11.7 90 +13 +13 1020.1 1013.3
СВ 1 5 км дымка 10/10 120 м +13.3 +11.7 90 +13 +13 1013.3
штиль 0 3 км дымка 10/10 120 м +13.3 +11.7 90 +13 +13 1013.3
штиль 0 3 км дымка 10/10 120 м +13.3 +12.2 93 +13 +13 1020.4 1013.6
В 1 3 км дымка 10/10 120 м +13.3 +12.2 93 +13 +13 1020.2 1013.3
штиль 0 3 км дымка 10/10 90 м +13.3 +12.2 93 +13 +13 1012.9
штиль 0 2 км дымка 10/10 90 м +13.3 +12.2 93 +13 +13 1020.3 1013.6
штиль 0 2 км дымка 10/10 60 м +13.3 +12.2 93 +13 +13 1013.6
штиль 0 2 км дымка 10/10 60 м +13.3 +12.2 93 +13 +13 1020.6 1013.6 +12.8 +13.3
штиль 0 1 км дымка 10/10 60 м +13.3 +12.2 93 +13 +13 1013.6
штиль 0 1 км дымка 10/10 60 м +13.3 +12.2 93 +13 +13 1020.3 1013.6
штиль 0 1 км дымка ?/? +13.3 +12.2 93 +13 +13 1020.2 1013.3
штиль 0 800 м туман ?/? +13.3 +12.2 93 +13 +13 1019.8 1012.9
штиль 0 800 м туман ?/? +13.3 +12.8 97 +13 +13 1013.3
штиль 0 800 м туман ?/? +13.9 +12.8 93 +13 +13 1012.6
штиль 0 2 км дымка ?/? +13.9 +13.3 96 +13 +13 1012.9
штиль 0 2 км дымка 10/10 90 м +13.9 +13.3 96 +13 +13 1012.6 +13.3 +13.9
штиль 0 2 км дымка 10/10 60 м +13.9 +12.2 89 +13 +13 1013.3
штиль 0 2 км дымка 10/10 90 м +13.9 +12.8 93 +13 +13 1012.6
штиль 0 1 км дымка 10/10 60 м +13.9 +12.8 93 +13 +13 1019.8 1012.9
штиль 0 2 км дымка 10/10 60 м +13.9 +13.3 96 +13 +13 1012.6
штиль 0 1 км дымка 10/10 60 м +13.9 +12.8 93 +13 +13 1012.6
штиль 0 1 км дымка 10/10 60 м +13.9 +13.3 96 +13 +13 1019.4 1012.6
штиль 0 2 км дымка 10/10 60 м +13.9 +13.3 96 +13 +13 1012.9
Ю 1 1 км дымка 10/10 60 м +13.3 +12.8 97 +12 +12 1019.9 1012.9
штиль 0 2 км дымка 10/10 60 м +13.3 +12.8 97 +13 +13 1013.3
штиль 0 3 км дымка 10/10 60 м +13.9 +13.3 96 +13 +13 1013.6
СЗ 1 3 км дымка 10/10 60 м +13.9 +12.8 93 +13 +13 1013.6
СЗ 1 16 км 10/10 60 м +13.3 +11.7 90 +12 +12 1013.6
СЗ 1 16 км 10/10 60 м +12.8 +11.7 93 +11 +11 1020.6 1013.6
СЗ 1 16 км 10/10 300 м +12.8 +11.7 93 +12 +12 1013.9
СЗ 1 16 км 10/8 300 м
[Ac]
+13.3 +11.1 87 +13 +13 1014.3
СЗ 1 16 км 10/8 390 м
[Ac]
+13.3 +11.1 87 +12 +12 1014.6
СЗ 1 16 км 10/10 1950 м +12.8 +10.0 83 +12 +12 1021.6 1014.6
штиль 0 16 км 10/8 630 м
[Ac]
+12.2 +10.0 86 +12 +12 1015.6
штиль 0 16 км 10/8 630 м
[Ac]
+12.2 +10.0 86 +12 +12 1022.5 1015.6 +12.2 +13.9
СВ 1 16 км 10/8 630 м
[Ac]
+12.2 +8.9 80 +11 +11 1023.2 1016.3
штиль 0 16 км 10/0 2250 м
[Ac]
+12.2 +8.9 80 +12 +12 1016.3
нст 1 16 км 10/0 2250 м
[Ac]
+12.8 +8.3 74 +12 +12 1023.3 1016.3
нст 1 16 км 10/8 660 м
[Ac]
+12.8 +7.2 69 +12 +12 1016.6
СВ 1 16 км 10/8 690 м
[Ac]
+13.3 +7.2 67 +13 +13 1023.3 1016.3
штиль 0 16 км 10/5 690 м
[Ac]
+13.3 +7.2 67 +13 +15 1016.3
нст 1 16 км ясно +14.4 +7.8 65 +14 +19 1022.8 1015.9
нст 1 16 км 10/0 3000 м
[Ac]
+15.0 +6.1 55 +15 +17 1022.8 1015.9
Местоположение метеостанции Essex County Airport: широта 40.8764 долгота -74.2831 высота над уровнем моря 52 м.
В архиве по умолчанию представлена погода в Колдуэлле за последние 1-2 суток. Обновление информации о фактической погоде в базе происходит ежечасно! Архивные данные за месяц целиком и за предыдущие месяцы Вы можете получить, выбрав интересующий диапазон дат из раскрывающегося списка и нажав кнопку "Ввод!".
Внимание! Архив погоды МЕТАР в базе сайта по станциям, не включенным в климатический монитор, хранится не более 60 дней. Нет смысла пытаться выбрать более раннюю дату.
*Определитесь, кто Вы:
Внимание! Время в таблицах - местное (без учета летнего времени). Для получения всемирного времени необходимо вычесть поправку, которая равна -5 ч.
Смотрите также архив погоды в соседних городах и на ближайших метеорологических станциях:
Партнеры нашего сайта:      
Пояснения к столбцам:
  • Ветер - указаны скорость ветра в м/с - средняя за 10 мин, порывы в срок и между сроками (в фигурных скобках) и направление, откуда дует ветер: С - северный,
  • СВ - северо-восточный, В - восточный, ЮВ - юго-восточный, Ю - южный, ЮЗ - юго-западный, З - западный, СЗ - северо-западный.
  • Видимость - горизонтальная дальность видимости в метрах или километрах. При видимости от 1 до 10 км при отсутствии осадков обычно наблюдается дымка, при ухудшении видимости до 1 км и менее - туман. В сухую погоду видимость может ухудшаться дымом, пылью или мглою.
  • Явления - указаны атмосферные явления, наблюдавшиеся в срок или в последний час перед сроком; фигурными скобками обозначены явления, наблюдавшиеся между сроками (за 1-3 часа до срока); квадратными скобками обозначены град или гололедные отложения с указанием их диаметра в мм.
  • Облачность - указаны через наклонную черту общая и нижняя облачность в баллах и высота нижней границы облаков в метрах; квадратными скобками обозначены формы облаков: Ci - перистые, Cs - перисто-слоистые, Cc - перисто-кучевые, Ac - высококучевые, As - высокослоистые, Sc - слоисто-кучевые, Ns - слоисто-дождевые, Cu - кучевые, Cb - кучево-дождевые. Подробнее классификацию облаков см. в Атласе облаков (PDF).
  • T - Температура воздуха - температура, измеренная на высоте 2 м над землей.
  • Td - Температура точки росы - температура, при понижении до которой содержащийся в воздухе водяной пар достигнет насыщения.
  • f - Относительная влажность воздуха - влажноcть воздуха, измеренная на высоте 2 м над землей.
  • Te - Эффективная температура - температура, которую ощущает одетый по сезону человек в тени. Характеристика душности погоды. При расчете учитывается влияние влажности воздуха и скорости ветра на теплоощущения человека.
  • Tes - Эффективная температура на солнце - температура, которую ощущает человек, с поправкой на солнечный нагрев. Характеристика знойности погоды. Зависит от высоты солнца над горизонтом, облачности и скорости ветра. Ночью, в пасмурную погоду, а также при ветре 12 м/с и более поправка равна нулю.
  • P - Атмосферное давление - приведенное к уровню моря атмосферное давление.
  • Po - Атмосферное давление - измеренное на уровне метеостанции атмосферное давление.
  • Tmin - Минимальная температура - минимум температуры воздуха на высоте 2 м над землей.
  • Tmax - Максимальная температура - максимум температуры воздуха на высоте 2 м над землей.
  • R - Количество осадков - Количество выпавших осадков за период времени, мм. При наведении курсора мыши на число - период времени, за который выпало указанное количество осадков.
  • R24 - Количество осадков - Количество выпавших осадков за 24 часа, мм.
  • S - Снежный покров - Высота снежного покрова, см. При наведении курсора мыши на число - состояние снежного покрова и степень покрытия местности в баллах.